Location: Ch�ze
(42.9000°N, 0.0333°W)
Time: 23:41:43
(UTC+00:00)

Cosmos 1844 Rocket - Pass Details

Date: 24 January 2021
Orbit: 825 x 843 km, 71.0° (Epoch: 24 February)

Event Time Altitude Azimuth Distance (km) Brightness Sun altitude
Rises 18:41:46 0° 230° (SW) 3,389 6.9 -18.1°
Reaches altitude 10° 18:44:26 10° 240° (WSW) 2,457 6.2 -18.6°
Maximum altitude 18:49:31 34° 304° (NW) 1,364 4.2 -19.5°
Drops below altitude 10° 18:54:38 10° 9° (N) 2,463 5.0 -20.4°
Enters shadow 18:56:08 - 15° (NNE) 2,978 5.3 -20.7°
